User: anonymous   Login
Location: Unspecified
(0.0000°N, 0.0000°E)
Time: 00:51:44
(UTC+00:00)
Language:

ADEOS - Orbit

View from above orbital plane
View from above orbital plane
View from above satellite
View from above satellite

Ground track
Ground track

The orbit data is extracted from the following two-line orbital elements,

1 24277U 96046A   21023.81166444 -.00000016  00000-0  11727-4 0  9999
2 24277  98.9000   9.5405 0002219  88.5243 271.6193 14.29459993274318
Epoch (UTC): 23 January 2021 19:28:47
Eccentricity: 0.0002219
inclination: 98.9000°
perigee height: 792 km
apogee height: 795 km
right ascension of ascending node: 9.5405°
argument of perigee: 88.5243°
revolutions per day: 14.29459993
mean anomaly at epoch: 271.6193°
orbit number at epoch: 27431

The dashed part of the orbit path shows where the satellite is in the earth's shadow,  

DLR